User: anonymous   Login
Location: Caltech
(34.1382°N, 118.1253°W)
Time: 12:40:06
(UTC-07:00)
Language:

PAYLOAD A - Orbit

View from above orbital plane
View from above orbital plane
View from above satellite
View from above satellite

Ground track
Ground track

The orbit data is extracted from the following two-line orbital elements,

1 27840U 03031A   16176.94180619 -.00000027 +00000-0 +46222-5 0  9998
2 27840 098.1957 184.0837 0099473 115.7615 245.3880 14.38857515681845
Epoch (UTC): 24 June 2016 22:36:12
Eccentricity: 0.0099473
inclination: 98.1957°
perigee height: 691 km
apogee height: 833 km
right ascension of ascending node: 184.0837°
argument of perigee: 115.7615°
revolutions per day: 14.38857515
mean anomaly at epoch: 245.3880°
orbit number at epoch: 68184

The dashed part of the orbit path shows where the satellite is in the earth's shadow,  

DLR